DW1035 Weather Reports


Display with metric or nautical units.
time (UTC)temp
F
wind
direction
speed
MPH
gust
MPH
rain 1hr
in
rain 24hr
in
rain mn
in
humidity
%
barometer
mb
20260506211009 54 0 0.0 0.0 0.09 0.19 0.16 99 1003.1
20260506210510 54 0 0.0 0.0 0.08 0.17 0.14 99 1003.0
20260506210010 55 0 0.0 0.0 0.08 0.17 0.14 99 1003.1
20260506204509 55 0 0.0 0.0 0.05 0.15 0.12 99 1003.2
20260506204009 56 0 0.0 0.0 0.06 0.14 0.11 99 1003.2
20260506203510 56 0 0.0 0.0 0.06 0.13 0.11 99 1003.2
20260506201509 56 0 0.0 0.0 0.02 0.10 0.07 99 1003.1
20260506201009 56 0 0.0 0.0 0.02 0.09 0.07 99 1003.1
20260506200009 56 0 0.0 0.0 0.04 0.09 0.06 99 1003.0
20260506194509 55 0 0.0 0.0 0.06 0.09 0.07 99 1003.5
20260506194009 55 0 0.0 0.0 0.05 0.07 0.05 99 1004.1
20260506193509 56 0 0.0 0.0 0.05 0.07 0.05 97 1003.6
20260506193009 56 0 0.0 0.0 0.05 0.06 0.05 97 1003.6
20260506191509 56 0 0.0 0.0 0.05 0.05 0.05 95 1003.9
20260506191009 56 0 0.0 0.0 0.04 0.04 0.04 94 1004.1
20260506184509 57 0 0.0 0.0 0.01 0.01 0.01 89 1003.9
20260506184009 57 0 0.0 0.0 0.01 0.01 0.01 87 1003.9
20260506183509 57 0 0.0 0.0 0.00 0.00 0.00 86 1003.6
20260506183009 57 0 0.0 0.0 0.00 0.00 0.00 84 1003.5
20260506181509 57 0 0.0 0.0 0.00 0.00 0.00 84 1003.5
20260506181009 57 0 0.0 0.0 0.00 0.00 0.00 84 1003.5
20260506180508 57 0 0.0 0.0 0.00 0.00 0.00 84 1003.5
20260506180009 57 0 0.0 0.0 0.00 0.00 0.00 84 1003.6
20260506174509 58 0 0.0 0.0 0.00 0.00 0.00 83 1003.8
20260506174008 58 0 0.0 0.0 0.00 0.00 0.00 82 1003.8
20260506173509 58 0 0.0 0.0 0.00 0.00 0.00 81 1003.9
20260506173009 58 0 0.0 0.0 0.00 0.00 0.00 80 1003.9
20260506171508 58 0 0.0 0.0 0.00 0.00 0.00 82 1004.0
20260506171008 58 0 0.0 0.0 0.00 0.00 0.00 82 1004.1
20260506170509 59 0 0.0 0.0 0.00 0.00 0.00 81 1004.2
20260506170009 59 0 0.0 0.0 0.00 0.00 0.00 81 1004.3
20260506164508 61 0 0.0 0.0 0.00 0.00 0.00 80 1004.4
20260506164008 61 0 0.0 0.0 0.00 0.00 0.00 79 1004.5
20260506163008 62 0 0.0 0.0 0.00 0.00 0.00 79 1004.6
20260506161008 62 0 0.0 0.0 0.00 0.00 0.00 79 1005.1
20260506160508 62 0 0.0 0.0 0.00 0.00 0.00 80 1005.2
20260506160008 62 0 0.0 0.0 0.00 0.00 0.00 80 1005.3
20260506154508 61 0 0.0 0.0 0.00 0.00 0.00 80 1005.4
20260506154008 61 0 0.0 0.0 0.00 0.00 0.00 81 1005.5
20260506153508 60 0 0.0 0.0 0.00 0.00 0.00 82 1005.6
20260506153008 60 0 0.0 0.0 0.00 0.00 0.00 82 1005.4
20260506151508 60 0 0.0 0.0 0.00 0.00 0.00 83 1005.7
20260506151008 59 0 0.0 0.0 0.00 0.00 0.00 83 1005.6
20260506150508 59 0 0.0 0.0 0.00 0.00 0.00 84 1005.5
20260506150008 59 0 0.0 0.0 0.00 0.00 0.00 84 1005.4
20260506144507 59 0 0.0 0.0 0.00 0.00 0.00 84 1005.4
20260506144008 59 0 0.0 0.0 0.00 0.00 0.00 84 1005.4
20260506143008 59 0 0.0 0.0 0.00 0.00 0.00 83 1005.2
20260506141508 58 0 0.0 0.0 0.00 0.00 0.00 85 1005.3
20260506140507 58 0 0.0 0.0 0.00 0.00 0.00 87 1005.5
20260506140008 57 0 0.0 0.0 0.00 0.00 0.00 87 1005.6
20260506134008 57 0 0.0 0.0 0.00 0.00 0.00 87 1005.8
20260506133507 57 0 0.0 0.0 0.00 0.00 0.00 87 1005.7
20260506133007 57 0 0.0 0.0 0.00 0.00 0.00 88 1005.8
20260506131508 56 0 0.0 0.0 0.00 0.00 0.00 88 1005.8
20260506130007 56 0 0.0 0.0 0.00 0.00 0.00 88 1005.7
20260506124007 55 0 0.0 0.0 0.00 0.00 0.00 88 1005.8
20260506123507 55 0 0.0 0.0 0.00 0.00 0.00 89 1005.8
20260506123008 55 0 0.0 0.0 0.00 0.00 0.00 89 1005.9
20260506121508 55 0 0.0 0.0 0.00 0.00 0.00 89 1006.0
20260506121007 55 0 0.0 0.0 0.00 0.00 0.00 90 1006.1
20260506120507 55 0 0.0 0.0 0.00 0.00 0.00 89 1006.1
20260506120007 55 0 0.0 0.0 0.00 0.00 0.00 89 1006.1
20260506114508 54 0 0.0 0.0 0.00 0.00 0.00 91 1006.4
20260506114007 54 0 0.0 0.0 0.00 0.00 0.00 91 1006.4
20260506113506 53 0 0.0 0.0 0.00 0.00 0.00 91 1006.3
20260506113007 53 0 0.0 0.0 0.00 0.00 0.00 92 1006.2
20260506111507 53 0 0.0 0.0 0.00 0.00 0.00 93 1006.2
20260506111007 52 0 0.0 0.0 0.00 0.00 0.00 93 1006.2
20260506110507 52 0 0.0 0.0 0.00 0.00 0.00 92 1006.4
20260506104507 52 0 0.0 0.0 0.00 0.00 0.00 93 1006.4
20260506104007 52 0 0.0 0.0 0.00 0.00 0.00 93 1006.4
20260506103507 52 0 0.0 0.0 0.00 0.00 0.00 93 1006.2
20260506101507 51 0 0.0 0.0 0.00 0.00 0.00 94 1006.2
20260506101006 50 0 0.0 0.0 0.00 0.00 0.00 94 1006.1
20260506100506 50 0 0.0 0.0 0.00 0.00 0.00 94 1006.1
20260506100007 50 0 0.0 0.0 0.00 0.00 0.00 94 1006.2
20260506093507 50 0 0.0 0.0 0.00 0.00 0.00 95 1006.2
20260506091507 50 0 0.0 0.0 0.00 0.00 0.00 94 1006.0
20260506091007 50 0 0.0 0.0 0.00 0.00 0.00 94 1006.1
20260506090507 50 0 0.0 0.0 0.00 0.00 0.00 94 1006.1
20260506090006 50 0 0.0 0.0 0.00 0.00 0.00 94 1006.1
20260506084006 50 0 0.0 0.0 0.00 0.00 0.00 93 1006.0
20260506083507 50 0 0.0 0.0 0.00 0.00 0.00 93 1006.0
20260506083006 51 0 0.0 0.0 0.00 0.00 0.00 93 1006.0
20260506080507 51 0 0.0 0.0 0.00 0.00 0.00 91 1006.0
20260506073506 51 0 0.0 0.0 0.00 0.00 0.00 89 1005.8
20260506071506 51 0 0.0 0.0 0.00 0.00 0.00 89 1005.4
20260506071006 51 0 0.0 0.0 0.00 0.00 0.00 89 1005.4
20260506070506 51 0 0.0 0.0 0.00 0.00 0.00 89 1005.4
20260506061505 51 0 0.0 0.0 0.00 0.00 0.00 88 1005.3
20260506061006 51 0 0.0 0.0 0.00 0.00 0.00 88 1005.3
20260506060506 52 0 0.0 0.0 0.00 0.00 0.00 88 1005.3
20260506051005 54 0 0.0 0.0 0.00 0.00 0.00 82 1005.4
20260506050505 55 0 0.0 0.0 0.00 0.00 0.00 82 1005.5
20260506044505 54 0 0.0 0.0 0.00 0.00 0.00 82 1005.5
20260506044006 54 0 0.0 0.0 0.00 0.00 0.00 82 1005.5
20260506043005 54 0 0.0 0.0 0.00 0.00 0.00 82 1005.5
20260506041505 54 0 0.0 0.0 0.00 0.00 0.00 82 1005.5
20260506041005 54 0 0.0 0.0 0.00 0.00 0.00 82 1005.5
20260506040506 55 0 0.0 0.0 0.00 0.00 0.00 82 1005.5
20260506040006 55 0 0.0 0.0 0.00 0.00 0.00 82 1005.4
20260506034505 55 0 0.0 0.0 0.00 0.00 0.00 82 1005.5
20260506033504 55 0 0.0 0.0 0.00 0.00 0.00 82 1005.3
20260506031505 55 0 0.0 0.0 0.00 0.00 0.00 80 1005.4
20260506031005 56 0 0.0 0.0 0.00 0.00 0.00 79 1005.3
20260506030504 56 0 0.0 0.0 0.00 0.00 0.00 79 1005.2
20260506030005 56 0 0.0 0.0 0.00 0.00 0.00 78 1005.1
20260506024505 57 0 0.0 0.0 0.00 0.00 0.00 78 1005.3
20260506023504 57 0 0.0 0.0 0.00 0.00 0.00 77 1005.5
20260506023005 57 0 0.0 0.0 0.00 0.00 0.00 77 1005.3
20260506021504 57 0 0.0 0.0 0.00 0.00 0.00 77 1005.4
20260506021005 57 0 0.0 0.0 0.00 0.00 0.00 77 1005.3
20260506020005 58 0 0.0 0.0 0.00 0.00 0.00 76 1005.5
20260506014504 58 0 0.0 0.0 0.00 0.00 0.00 75 1005.5
20260506014004 59 0 0.0 0.0 0.00 0.00 0.00 75 1005.5
20260506013505 59 0 0.0 0.0 0.00 0.00 0.00 74 1005.4
20260506013005 59 0 0.0 0.0 0.00 0.00 0.00 74 1005.5
20260506011504 60 0 0.0 0.0 0.00 0.00 0.00 72 1005.3
20260506010504 60 0 0.0 0.0 0.00 0.00 0.00 71 1005.1
20260506010004 60 0 0.0 0.0 0.00 0.00 0.00 71 1005.0
20260506004504 61 0 0.0 0.0 0.00 0.00 0.00 70 1005.0
20260506004004 61 0 0.0 0.0 0.00 0.00 0.00 69 1005.0
20260506003505 62 0 0.0 0.0 0.00 0.00 0.00 70 1004.9
20260506003004 62 0 0.0 0.0 0.00 0.00 0.00 68 1004.7
20260506001504 63 0 0.0 0.0 0.00 0.00 0.00 67 1004.2
20260506001004 63 0 0.0 0.0 0.00 0.00 0.00 66 1004.1
20260506000504 64 0 0.0 0.0 0.00 0.00 0.00 65 1003.9
20260506000004 64 0 0.0 0.0 0.00 0.00 0.00 65 1003.7
20260505234504 64 0 0.0 0.0 0.00 0.00 0.00 65 1003.5
20260505234004 64 0 0.0 0.0 0.00 0.00 0.00 65 1003.4
20260505233004 64 0 0.0 0.0 0.00 0.00 0.00 65 1003.5
20260505231504 63 0 0.0 0.0 0.00 0.00 0.00 66 1003.6
20260505230504 63 0 0.0 0.0 0.00 0.00 0.00 66 1002.7
20260505230004 63 0 0.0 0.0 0.00 0.00 0.00 66 1002.2
20260505224504 63 0 0.0 0.0 0.00 0.00 0.00 66 1002.0
20260505223504 63 0 0.0 0.0 0.00 0.00 0.00 65 1001.9
20260505221509 64 0 0.0 0.0 0.00 0.00 0.00 64 1001.7
20260505221010 63 0 0.0 0.0 0.00 0.00 0.00 65 1001.6
20260505220510 63 0 0.0 0.0 0.00 0.00 0.00 66 1001.6
20260505220010 63 0 0.0 0.0 0.00 0.00 0.00 66 1001.5
20260505214509 62 0 0.0 0.0 0.00 0.00 0.00 67 1001.4
20260505214010 62 0 0.0 0.0 0.00 0.00 0.00 67 1001.4
20260505213009 62 0 0.0 0.0 0.00 0.00 0.00 68 1001.4